Hourly Data Report for July 21, 2017

TORONTO CITY
ONTARIO

43°40'00.000" N
79°24'00.000" W
112.50 m
6158355
71508
XTO

Download Data

Hourly Data (July 2017)
Hourly Data Report for July 21, 2017
TIME
LST
Temp Definition
°C
Dew Point Definition
°C
Rel Hum Definition
%
Precip. Amount Definition
mm

Wind Dir Definition
10's deg

Wind Spd Definition
km/h
Visibility Definition
km
Stn Press Definition
kPa
Hmdx Definition


Wind Chill Definition


Weather Definition


00:00 19.5 17.4 88 0.0 LegendMM LegendMM   99.91     LegendNANA
01:00 19.4 17.4 88 0.0 LegendMM LegendMM   99.91     LegendNANA
02:00 19.4 17.5 89 0.0 LegendMM LegendMM   99.89     LegendNANA
03:00 19.6 17.4 87 0.0 LegendMM LegendMM   99.90     LegendNANA
04:00 19.3 17.3 89 0.0 LegendMM LegendMM   99.91     LegendNANA
05:00 19.1 17.2 89 0.0 LegendMM LegendMM   99.92     LegendNANA
06:00 19.8 17.7 88 0.0 LegendMM LegendMM   99.96     LegendNANA
07:00 22.5 19.0 81 0.0 LegendMM LegendMM   100.02 29   LegendNANA
08:00 24.2 17.0 64 0.0 LegendMM LegendMM   100.06 29   LegendNANA
09:00 24.9 17.2 62 0.0 LegendMM LegendMM   100.04 30   LegendNANA
10:00 26.4 17.0 56 0.0 LegendMM LegendMM   100.03 32   LegendNANA
11:00 27.6 15.8 49 0.0 LegendMM LegendMM   99.98 32   LegendNANA
12:00 28.5 14.7 43 0.0 LegendMM LegendMM   99.98 32   LegendNANA
13:00 28.6 12.3 37 0.0 LegendMM LegendMM   99.98 31   LegendNANA
14:00 29.0 12.6 36 0.0 LegendMM LegendMM   99.91 32   LegendNANA
15:00 29.2 11.3 33 0.0 LegendMM LegendMM   99.90 31   LegendNANA
16:00 29.2 10.7 32 0.0 LegendMM LegendMM   99.88 31   LegendNANA
17:00 28.6 10.3 32 0.0 LegendMM LegendMM   99.90 30   LegendNANA
18:00 27.9 10.6 34 0.0 LegendMM LegendMM   99.92 29   LegendNANA
19:00 26.8 13.0 43 0.0 LegendMM LegendMM   99.95 30   LegendNANA
20:00 25.6 12.9 45 0.0 LegendMM LegendMM   99.96 28   LegendNANA
21:00 24.4 13.1 49 0.0 LegendMM LegendMM   99.98 27   LegendNANA
22:00 23.2 14.2 57 0.0 LegendMM LegendMM   99.96 27   LegendNANA
23:00 23.3 13.7 55 0.0 LegendMM LegendMM   99.98 26   LegendNANA

Notes on Data Quality.

Legend

  • E = Estimated
  • M = Missing
  • NA = Not Available*
  • [empty] = Indicates an unobserved value
Date modified: